Temp
13 13 12 12 11 10 9 8 8 8 7 7 7 6 6 6 5 5 4 4 4 3
12 12 11 10 10 9 9 8 8 7 7 7 6 6 5 5 4 4 4 3 3 2
11 11 10 9 9 9 8 8 7 7 7 6 5 5 4 4 4 4 3 3 2 2
10 9 9 9 8 8 7 7 7 6 6 5 5 4 4 4 3 3 3 3 2 1
9 8 8 8 7 7 7 6 6 5 5 5 4 4 3 3 3 3 2 2 1 0
8 8 8 7 7 6 6 6 5 5 4 4 3 3 3 2 2 2 2 2 0 -0
7 7 7 6 6 5 5 5 4 4 3 3 2 2 2 2 2 2 2 1 0 -1
6 6 6 5 5 5 4 4 3 3 3 2 2 1 1 2 1 1 1 1 0 -0
6 5 5 5 4 4 4 3 3 2 1 1 1 0 1 1 1 1 0 0 -0 -1
5 5 4 4 4 4 3 2 2 1 1 1 0 -0 0 0 -0 -1 -1 -1 -1 -2
4 4 4 3 3 3 2 1 1 1 0 -0 -1 -1 -1 -1 -2 -2 -2 -2 -2 -2
4 3 3 3 2 2 1 1 0 -0 -1 -1 -1 -2 -2 -2 -2 -3 -3 -3 -3 -2
3 3 3 2 2 1 0 0 -0 -1 -1 -2 -2 -2 -2 -2 -2 -3 -3 -3 -3 -3
3 2 2 1 1 -0 -0 -1 -1 -2 -2 -2 -2 -3 -3 -2 -2 -2 -2 -3 -3 -3
Height
772 775 778 780 782 784 785 786 786 786 785 784 782 780 778 776 773 771 769 766 763 760
771 774 778 780 782 784 785 785 785 784 783 782 780 778 776 773 771 768 765 762 759 757
772 775 778 780 782 783 784 784 784 783 781 779 777 775 773 771 768 765 762 759 756 753
773 776 779 781 782 783 783 783 783 781 780 778 775 773 770 768 764 762 758 755 752 749
774 777 779 781 782 782 782 782 781 780 778 775 773 770 767 764 761 758 754 751 748 746
775 777 780 780 781 781 781 781 780 778 775 773 770 767 764 761 758 754 750 747 744 741
775 778 779 780 780 781 780 779 778 776 774 771 768 764 761 758 753 749 746 743 740 736
776 778 779 780 780 780 780 778 776 774 771 768 765 761 758 754 749 745 742 738 735 732
776 777 779 779 780 779 778 776 774 772 769 766 762 759 755 751 745 741 738 733 730 727
776 778 779 779 778 777 776 775 772 770 767 763 760 756 752 747 742 738 735 731 726 722
776 777 778 777 777 776 775 773 771 768 765 761 757 753 748 744 740 736 731 727 722 717
775 776 776 776 776 775 773 771 769 766 762 757 753 749 745 741 736 732 727 723 718 714
774 775 775 775 775 774 772 769 766 762 759 755 751 747 743 739 734 728 722 718 713 709
773 774 775 775 774 772 769 766 762 758 755 752 749 745 742 737 732 726 718 713 707 703
Wind_Speed
21 19 16 13 11 8 5 3 4 5 7 9 11 14 15 17 19 20 21 21 21 22
20 17 16 13 10 6 4 2 4 6 9 11 13 15 17 20 21 22 22 23 22 21
19 16 14 12 9 5 2 2 5 8 10 13 15 18 20 22 23 23 24 23 20 23
18 15 13 10 7 4 2 4 7 10 12 15 18 20 22 23 24 23 24 22 22 22
17 14 11 8 5 2 3 6 9 11 14 17 20 22 24 24 22 24 25 25 21 21
15 12 9 6 3 3 5 7 10 13 17 20 22 24 24 21 24 26 26 24 18 21
13 9 7 4 2 4 6 9 12 16 18 21 23 23 21 25 27 26 26 21 19 20
11 8 5 2 2 4 7 10 14 17 20 22 23 20 24 25 26 27 27 25 22 24
9 6 3 1 3 6 9 13 17 19 21 22 24 22 23 25 27 29 28 29 28 27
7 5 2 2 4 8 12 16 19 20 22 23 25 21 23 25 27 26 24 25 27 27
6 3 1 3 6 10 14 17 19 21 22 23 23 21 23 26 24 26 27 26 24 23
4 2 2 5 9 12 16 19 20 22 23 23 23 21 23 25 25 23 26 24 24 24
3 2 4 7 11 14 16 18 20 23 22 21 22 22 23 24 23 22 24 25 24 26
2 3 6 8 12 15 17 20 23 22 23 21 20 22 22 22 24 24 27 26 25 26
Wind_Direction
154 153 150 152 152 149 139 93 26 3 359 356 353 348 343 341 339 336 333 333 331 325
151 151 149 147 146 139 125 45 358 350 346 345 344 342 340 339 336 333 332 331 328 325
148 148 147 146 143 134 107 10 348 342 341 339 340 342 339 336 333 331 329 328 323 324
147 146 146 144 132 114 51 360 345 340 339 340 341 340 336 334 331 325 324 325 321 321
147 148 146 137 121 80 15 352 344 341 340 341 340 337 334 331 329 327 324 323 317 318
149 150 145 133 105 26 357 347 346 344 344 341 338 335 334 332 329 327 324 318 309 321
152 152 142 124 61 9 353 348 346 347 343 341 338 338 335 330 328 327 322 316 313 320
152 149 138 107 28 360 353 352 348 346 343 343 343 340 333 331 328 326 326 321 314 317
152 147 136 65 5 355 356 350 349 349 348 346 346 340 336 332 329 328 326 320 318 321
150 148 126 26 2 357 354 349 347 348 349 346 344 340 338 338 333 334 337 331 324 320
151 140 62 9 358 354 351 348 347 346 346 343 344 342 342 338 336 332 329 327 324 317
142 115 22 356 355 354 345 343 343 343 343 344 344 343 339 336 333 325 323 321 317 315
130 65 7 356 353 347 343 338 341 342 348 348 342 340 335 333 328 320 314 313 309 311
103 32 0 353 347 344 345 342 344 346 348 348 343 334 330 331 329 321 315 312 311 312